Regional Weather Roundup
Issued by NWS Green Bay, WI

Home | Current Version | Previous Version | Graphics & Text | Print | Product List | Glossary Off
Versions: 1 2 3 4 5 6 7 8 9 10 11 12 13 14 15 16 17 18 19 20 21 22 23 24 25 26 27 28 29 30 31 32 33 34 35 36 37 38 39 40 41 42 43 44 45 46 47 48 49 50

000
ASUS43 KGRB 241511
RWRGRB

NORTH-CENTRAL AND NORTHEAST WISCONSIN REGIONAL WEATHER ROUNDUP
NATIONAL WEATHER SERVICE GREEN BAY WI
900 AM CST FRI FEB 24 2017

WIZ005-009-010>012-018-019-241600-
NORTH CENTRAL WISCONSIN

CITY           SKY/WX    TMP DP  RH WIND       PRES   REMARKS
IRONWOOD       LGT SNOW  21  17  84 NE12G20   29.87S VSB 1   WCI   9
MANITOWISH WTR LGT SNOW  19  18  94 N9G20     29.79F WCI   9
ARBOR VITAE    LGT SNOW  22  18  85 NE12        N/A
EAGLE RIVER    LGT SNOW  21  16  82 NE14G22   29.76F WCI   8
LAND O LAKES   LGT SNOW  21  18  87 N12G20    29.80F WCI   9
RHINELANDER    MIX PCPN  23  18  81 NE9G21    29.75S
PHILLIPS       LGT SNOW  22  19  87 N18       29.76F WCI   7
ANTIGO         CLOUDY    24  21  89 NE17      29.70F
TOMAHAWK       LGT SNOW  23  19  83 NE8G22    29.74F
MERRILL        NOT AVBL
$$

WIZ013-073-241600-
NORTHEAST WISCONSIN

CITY           SKY/WX    TMP DP  RH WIND       PRES   REMARKS
IRON MOUNTAIN  MIX PCPN  24  17  74 N14       29.77S
MARINETTE      LGT SNOW  28  24  85 NE21G30   29.76F FOG
OCONTO         CLOUDY    28  26  90 N10       29.73S
$$

WIZ017-030-035>037-045-241600-
CENTRAL WISCONSIN

CITY           SKY/WX    TMP DP  RH WIND       PRES   REMARKS
MEDFORD        CLOUDY    24  20  85 NE16G24   29.69F
WAUSAU         LGT SNOW  26  21  81 NE14G25   29.67F
MOSINEE        LGT SNOW  27  27 100 NE13G24   29.67F VSB 3/4
MARSHFIELD     CLOUDY    27  23  85 NE16G23   29.67R FOG
WISC RAPIDS    CLOUDY    29  27  92 NE13G20   29.66F
STEVENS POINT  CLOUDY    26  23  89 NE20G32   29.66F FOG
WAUPACA        CLOUDY    31  27  86 NE13G24   29.66F FOG
SHAWANO        CLOUDY    30  26  87 NE18G30   29.70F FOG
CLINTONVILLE   MIX PCPN  30  27  86 NE17G28   29.69F
WAUTOMA        LGT SNOW  28  27  93 NE23      29.62S FOG
$$

WIZ038-039-048-051-241600-
FOX VALLEY

CITY           SKY/WX    TMP DP  RH WIND       PRES   REMARKS
NWS GREEN BAY  SNOW      29  28  96 NE33G40   29.68S VSB 1/2
APPLETON       DRIZZLE   28  27  93 NE21G29   29.62F
OSHKOSH        LGT SNOW  30  28  92 NE21G33   29.62F FOG
FOND DU LAC    FLURRIES  32  27  81 NE23G29   29.62F
$$

WIZ022-050-052-241600-
EAST CENTRAL WISCONSIN

CITY           SKY/WX    TMP DP  RH WIND       PRES   REMARKS
EPHRAIM        LGT SNOW  27  26  99 NE16G28   29.71F VSB 3/4
WASHINGTON ISL SNOW      26  24  93 NE22G33   29.74F VSB 1/4
STURGEON BAY   LGT SNOW  29  26  89 NE16G26   29.71F FOG
MANITOWOC      LGT SNOW  32  29  88 NE21G29   29.63F VSB 1
SHEBOYGAN      LGT SNOW  32  31  96 NE29G35   29.61F FOG
$$

LMZ563-521-522-541>543-241600-
LAKESHORE

STATION/POSITION TIME  TEMP    WIND        PRES    VSBY  WAVE
                       AIR SEA DIR/SP/G                  HT/PER
                 (UTC) (F)     (DEG/KT/KT) (MB)    (MI)  (FT/S)
SHEBOYGAN LKSHOR 1500   33      40/ 32/ 34 1003.2F
KEWAUNEE LKSHORE 1448   31      40/ 26/ 33 1004.3F
NORTHPORT PIER   1502   27      10/ 20     1007.1
SISTER BAY LKSHO 1420   28     360/ 18/ 28   N/A
CHAMBERS ISLAND  1440   27      10/ 28/ 33 1006.8S
MENOMINEE LKSHOR 1448   28     360/ 30/ 33 1006.4F
$$



USA.gov is the U.S. government's official web portal to all federal, state and local government web resources and services.